[[{"header":{"parameterUnit":"m.s-1","parameterCategory":2,"la1":30.2991,"la2":30.254,"lo1":-89.0895,"lo2":-89.0444,"dy":0.0017,"dx":0.0017,"nx":28,"ny":28,"refTime":"2025-03-11T03:00:00:Z","depth":"0","parameterNumber":2,"parameterNumberName":"U-component_of_CURRENTS"},"data":[0,0,0,0,0,0,0,0,0,0,0,0,0,0,0,0,0,0,0,0,0,0,0,0,0,0,0,0,0,0,0,0,0,0,0,0,0,0,0,0,0,0,0,0,0,0,0,0,0,0,0,0,0,0,0,0,0,0,-0.2735,-0.2736,0,-0.2783,-0.2783,-0.2784,-0.2735,-0.2733,-0.2731,-0.273,-0.2645,-0.2644,-0.2643,0,0,0,0,0,0,0,0,0,0,0,0,0,-0.2577,-0.258,-0.2735,-0.2736,-0.2737,-0.2783,-0.2783,-0.2784,-0.2735,-0.2733,-0.2731,-0.2729,-0.2645,-0.2644,-0.2643,0,0,0,0,0,0,0,0,0,0,0,0,0,-0.2634,-0.2581,-0.2735,-0.272,-0.272,-0.2783,-0.2783,-0.2784,-0.2735,-0.2733,-0.273,-0.2728,-0.2645,-0.2644,-0.2643,-0.2685,0,0,-0.264,-0.2639,0,0,0,0,0,0,0,0,-0.2631,-0.264,-0.2722,-0.2721,-0.2721,-0.2753,-0.2697,-0.2745,-0.2736,-0.2726,-0.273,-0.2727,-0.2673,-0.2669,-0.2681,-0.2681,-0.2677,-0.2639,-0.2639,-0.2638,-0.2638,0,0,0,0,0,0,0,-0.2627,-0.2637,-0.2751,-0.2723,-0.2723,-0.2703,-0.2709,-0.2706,-0.2707,-0.2727,-0.2724,-0.2735,-0.2671,-0.2682,-0.2678,-0.2676,-0.264,-0.2638,-0.2638,-0.2637,-0.2722,-0.2725,0,0,0,0,0,0,-0.2633,-0.2634,-0.2749,-0.2752,-0.2673,-0.2709,-0.2714,-0.2743,-0.271,-0.2705,-0.2737,-0.2733,-0.2685,-0.268,-0.2675,-0.2687,-0.2638,-0.2637,-0.2637,-0.272,-0.2723,-0.2726,0,0,0,0,0,0,-0.2629,-0.2643,-0.2747,-0.2695,-0.2707,-0.2714,-0.2746,-0.2745,-0.2746,-0.272,-0.2711,-0.2738,-0.2683,-0.2676,-0.269,-0.2684,-0.2637,-0.2636,-0.2716,-0.2721,-0.2725,-0.2733,0,0,0,0,0,0,-0.2625,-0.2642,-0.2658,-0.2697,-0.2711,-0.2789,-0.2749,-0.2748,-0.2759,-0.2753,-0.2719,-0.2709,-0.2681,-0.2693,-0.2689,-0.2682,-0.2635,-0.2712,-0.2718,-0.2723,-0.2729,-0.2738,-0.2745,0,0,0,0,0,-0.2619,-0.2655,-0.2659,-0.2672,-0.2735,-0.2791,-0.2797,-0.2789,-0.2761,-0.2777,-0.2763,-0.2709,-0.2725,-0.2695,-0.269,-0.2681,-0.271,-0.2716,-0.2723,-0.2726,-0.2736,-0.2744,0,0,0,0,0,0,-0.2592,-0.2656,-0.2659,-0.2711,-0.2749,-0.2783,-0.2793,-0.2795,-0.28,-0.2783,-0.2747,-0.2739,-0.2755,-0.2739,-0.2706,-0.2733,-0.2709,-0.2715,-0.2713,-0.2722,-0.273,-0.268,-0.2634,0,0,0,0,0,-0.2598,-0.2636,-0.2694,-0.273,-0.275,-0.2772,-0.2789,-0.2795,-0.2809,-0.2807,-0.2791,-0.2781,-0.2786,-0.2768,-0.2781,-0.2786,-0.2732,-0.2786,-0.2793,-0.2799,-0.2763,-0.2679,-0.2673,-0.2748,-0.2748,-0.2748,0,0,-0.2596,-0.2634,-0.2654,-0.2725,-0.2745,-0.2774,-0.2774,-0.281,-0.2816,-0.2798,-0.2796,-0.2814,-0.2805,-0.2819,-0.2822,-0.2791,-0.2767,-0.2807,-0.2811,-0.2772,-0.2685,-0.2676,-0.2668,-0.2753,-0.2752,-0.2751,0,0,-0.2597,-0.2646,-0.2668,-0.2706,-0.2753,-0.2778,-0.279,-0.2836,-0.2835,-0.2864,-0.2854,-0.2865,-0.2874,-0.2858,-0.2849,-0.291,-0.2826,-0.293,-0.2892,-0.2812,-0.2802,-0.2793,-0.2764,-0.2751,-0.2909,-0.2909,-0.2909,0,-0.2581,-0.2616,-0.2682,-0.2708,-0.2719,-0.2776,-0.2784,-0.2817,-0.2859,-0.2846,-0.2863,-0.2876,-0.288,-0.2857,-0.289,-0.2914,-0.2871,-0.2846,-0.2812,-0.2801,-0.2791,-0.2763,-0.2749,-0.291,-0.291,-0.291,-0.291,0,-0.2592,-0.2614,-0.2631,-0.2674,-0.2713,-0.2733,-0.2791,-0.2817,-0.2829,-0.2843,-0.2851,-0.2881,-0.2863,-0.2896,-0.2905,-0.2856,-0.2855,-0.2841,-0.2765,-0.2782,-0.2755,-0.274,-0.2912,-0.2912,-0.2911,-0.2911,0,0,-0.2541,-0.2616,-0.2614,-0.2608,-0.2684,-0.271,-0.274,-0.276,-0.2742,-0.2801,-0.2763,-0.2815,-0.282,-0.2815,-0.2838,-0.2787,-0.2723,-0.2781,-0.2776,-0.271,-0.2568,-0.2477,-0.2453,-0.2683,-0.268,-0.2677,-0.2592,0,-0.2499,-0.2518,-0.2575,-0.2573,-0.2577,-0.2639,-0.2653,-0.2689,-0.2717,-0.2716,-0.2741,-0.2738,-0.2791,-0.2784,-0.2745,-0.275,-0.2676,-0.2749,-0.2596,-0.2592,-0.2471,-0.2428,-0.2314,-0.2218,-0.2577,-0.2575,-0.2573,0,-0.2463,-0.2476,-0.2468,-0.2485,-0.2491,-0.2511,-0.2515,-0.2543,-0.2575,-0.2591,-0.2596,-0.2626,-0.2621,-0.2643,-0.2586,-0.2628,-0.2576,-0.2566,-0.2561,-0.2443,-0.2469,-0.2255,-0.2177,-0.2177,-0.2549,-0.2551,-0.2553,0,-0.2358,-0.2386,-0.2362,-0.2375,-0.2428,-0.242,-0.2445,-0.2486,-0.2486,-0.2507,-0.2497,-0.2506,-0.2496,-0.2456,-0.2463,-0.2506,-0.237,-0.2422,-0.2281,-0.2279,-0.213,-0.2117,-0.1982,-0.2285,-0.2285,-0.2285,-0.2286,0,-0.2274,-0.2253,-0.2308,-0.2298,-0.226,-0.2333,-0.2301,-0.2334,-0.2362,-0.2347,-0.2414,-0.2393,-0.2433,-0.2389,-0.2399,-0.2292,-0.2301,-0.2239,-0.2218,-0.2142,-0.2132,-0.2084,-0.2132,-0.2282,-0.2283,-0.2284,-0.2284,0,-0.2162,-0.2202,-0.2176,-0.2208,-0.2214,-0.2191,-0.2225,-0.2202,-0.2248,-0.2232,-0.2231,-0.2275,-0.2211,-0.222,-0.2156,-0.2176,-0.2063,-0.204,-0.1978,-0.1948,-0.1851,-0.1906,-0.1738,-0.1695,-0.1902,-0.1898,-0.1896,0,-0.2108,-0.2081,-0.2098,-0.2081,-0.2092,-0.2083,-0.207,-0.2131,-0.2124,-0.216,-0.2133,-0.2075,-0.2015,-0.1915,-0.1877,-0.1805,-0.1847,-0.17,-0.1744,-0.178,-0.1827,-0.1892,-0.1875,-0.1594,-0.1589,-0.1585,-0.1582,0,-0.1982,-0.1992,-0.1978,-0.1947,-0.193,-0.1905,-0.1907,-0.1897,-0.1965,-0.1961,-0.1946,-0.19,-0.1771,-0.1649,-0.1537,-0.1511,-0.1671,-0.1612,-0.1633,-0.1533,-0.1605,-0.1576,-0.1779,-0.1546,-0.1549,-0.1552,-0.1554,-0.1555,-0.1879,-0.1844,-0.1828,-0.1785,-0.1767,-0.1719,-0.1647,-0.1682,-0.166,-0.1607,-0.1704,-0.153,-0.1505,-0.1314,-0.1285,-0.122,-0.1326,-0.1256,-0.1314,-0.1375,-0.1318,-0.1456,-0.1205,-0.1206,-0.1208,-0.1209,-0.121,0,-0.1725,-0.1702,-0.1662,-0.1597,-0.1512,-0.1552,-0.1509,-0.142,-0.1357,-0.1308,-0.1258,-0.1086,-0.1013,-0.0985,-0.0994,-0.098,-0.1002,-0.0997,-0.1073,-0.1067,-0.1145,-0.1115,-0.0849,-0.0849,-0.0849,-0.0849,-0.0849,-0.0849,-0.1644,-0.1562,-0.1545,-0.136,-0.1301,-0.1137,-0.108,-0.0994,-0.0906,-0.0713,-0.0532,-0.0435,-0.0586,-0.0879,-0.0927,-0.0893,-0.0933,-0.0883,-0.0962,-0.1051,-0.1081,-0.1111,-0.1091,-0.0824,-0.0824,-0.0826,-0.0826,-0.0827]},{"header":{"parameterUnit":"m.s-1","parameterCategory":2,"la1":30.2991,"la2":30.254,"lo1":-89.0895,"lo2":-89.0444,"dy":0.0017,"dx":0.0017,"nx":28,"ny":28,"refTime":"2025-03-11T03:00:00:Z","depth":"0","parameterNumber":3,"parameterNumberName":"V-component_of_CURRENTS"},"data":[0,0,0,0,0,0,0,0,0,0,0,0,0,0,0,0,0,0,0,0,0,0,0,0,0,0,0,0,0,0,0,0,0,0,0,0,0,0,0,0,0,0,0,0,0,0,0,0,0,0,0,0,0,0,0,0,0,0,0.0324,0.0324,0,0.0374,0.0375,0.0376,0.0434,0.0434,0.0435,0.0436,0.0549,0.0552,0.0554,0,0,0,0,0,0,0,0,0,0,0,0,0,0.029,0.0291,0.0324,0.0324,0.0325,0.0374,0.0375,0.0376,0.0434,0.0434,0.0435,0.0436,0.0548,0.0551,0.0554,0,0,0,0,0,0,0,0,0,0,0,0,0,0.0321,0.0291,0.0324,0.0358,0.0361,0.0374,0.0375,0.0376,0.0433,0.0435,0.0436,0.0437,0.0548,0.0551,0.0554,0.0556,0,0,0.0565,0.0567,0,0,0,0,0,0,0,0,0.0319,0.0322,0.0352,0.0356,0.0359,0.0397,0.0405,0.0439,0.0433,0.0408,0.0436,0.0437,0.0502,0.0509,0.0519,0.0561,0.0566,0.0566,0.0568,0.0569,0.057,0,0,0,0,0,0,0,0.0317,0.0321,0.0346,0.0353,0.0357,0.0375,0.0381,0.0411,0.0451,0.041,0.0414,0.0416,0.0505,0.0515,0.0522,0.0568,0.0566,0.0569,0.0571,0.0572,0.0642,0.0642,0,0,0,0,0,0,0.0305,0.0318,0.0344,0.0347,0.0339,0.0375,0.0381,0.0386,0.045,0.046,0.0415,0.0419,0.0508,0.0518,0.0526,0.0527,0.0569,0.0573,0.0575,0.0642,0.0642,0.0642,0,0,0,0,0,0,0.0304,0.0307,0.0342,0.0332,0.0338,0.0374,0.0379,0.0386,0.0396,0.0453,0.0464,0.0418,0.051,0.0521,0.055,0.0532,0.0574,0.0578,0.0643,0.0642,0.0642,0.0532,0,0,0,0,0,0,0.0303,0.0306,0.0304,0.0331,0.0338,0.0335,0.0378,0.0386,0.0395,0.04,0.0458,0.047,0.0511,0.0544,0.0554,0.0538,0.058,0.0643,0.0642,0.0642,0.0536,0.0527,0.052,0,0,0,0,0,0.0301,0.0289,0.0303,0.0306,0.0334,0.0334,0.0338,0.037,0.0393,0.0385,0.0432,0.0468,0.0548,0.0547,0.0558,0.0542,0.0643,0.0643,0.0642,0.0539,0.0529,0.0521,0,0,0,0,0,0,0.0269,0.0294,0.0311,0.0306,0.0314,0.0343,0.0337,0.0361,0.039,0.0399,0.046,0.0474,0.0499,0.0536,0.0533,0.0564,0.0603,0.0604,0.0521,0.0512,0.0505,0.0485,0.0583,0,0,0,0,0,0.026,0.0264,0.0282,0.0279,0.0276,0.0306,0.0311,0.0329,0.0359,0.0373,0.0415,0.0463,0.0504,0.0519,0.0562,0.0568,0.0618,0.0569,0.0561,0.0555,0.0548,0.0579,0.0573,0.064,0.064,0.064,0,0,0.0254,0.0262,0.0269,0.0273,0.0282,0.0267,0.0311,0.0308,0.0306,0.038,0.0392,0.0441,0.0503,0.0518,0.0531,0.0544,0.057,0.0554,0.0547,0.0544,0.0578,0.0571,0.0565,0.0639,0.0639,0.0639,0,0,0.0221,0.0238,0.0222,0.022,0.0221,0.0236,0.023,0.0251,0.0269,0.0282,0.0343,0.0374,0.0429,0.0464,0.0491,0.0466,0.0535,0.0486,0.042,0.0449,0.0443,0.0439,0.0523,0.0527,0.0472,0.0472,0.0472,0,0.0207,0.019,0.0215,0.0186,0.0179,0.0215,0.0185,0.0204,0.0236,0.0242,0.0273,0.0347,0.0401,0.0418,0.0417,0.0446,0.0495,0.0444,0.0437,0.0433,0.043,0.0517,0.0523,0.0466,0.0467,0.0468,0.0468,0,0.016,0.0141,0.0124,0.0108,0.0101,0.0081,0.0101,0.0103,0.0132,0.0153,0.0178,0.0246,0.0288,0.031,0.036,0.0364,0.0418,0.0428,0.0452,0.0416,0.0512,0.0519,0.0459,0.0461,0.0462,0.0463,0,0,0.0143,0.01,0.0096,0.0064,0.0058,0.0042,0.0032,0.0027,0.0013,0.0056,0.0044,0.0119,0.0156,0.0191,0.0251,0.0276,0.0317,0.0337,0.0341,0.0407,0.0424,0.046,0.0473,0.0318,0.0318,0.0317,0.0509,0,0.0096,0.0022,0.0024,-0.004,-0.0081,-0.006,-0.0076,-0.0072,-0.0052,-0.0053,0.0012,0.0036,0.0111,0.013,0.0164,0.0302,0.0327,0.0267,0.046,0.0467,0.049,0.0478,0.049,0.066,0.0517,0.0518,0.0519,0,0.0051,0.0001,-0.0073,-0.0132,-0.0147,-0.017,-0.0198,-0.0204,-0.0189,-0.0172,-0.0145,-0.0089,-0.0007,0.0032,0.0223,0.0185,0.0284,0.0373,0.0382,0.0455,0.0515,0.0668,0.068,0.08,0.0532,0.0531,0.053,0,0.0012,-0.0062,-0.0126,-0.0146,-0.0204,-0.0227,-0.0239,-0.0242,-0.0255,-0.0241,-0.0251,-0.0155,-0.0096,0.0039,0.027,0.0237,0.0481,0.0458,0.0575,0.0582,0.065,0.0662,0.0784,0.0526,0.0525,0.0525,0.0524,0,-0.0039,-0.009,-0.0152,-0.0194,-0.0273,-0.0277,-0.0335,-0.034,-0.0343,-0.0377,-0.0307,-0.0299,-0.0101,0.0066,0.0251,0.0489,0.0481,0.057,0.0619,0.0618,0.0623,0.0777,0.0813,0.0532,0.053,0.0529,0.0528,0,-0.0066,-0.0106,-0.0196,-0.0273,-0.03,-0.0347,-0.0397,-0.0435,-0.0424,-0.0464,-0.0461,-0.037,-0.0138,0.0105,0.0364,0.047,0.077,0.0756,0.0778,0.0821,0.097,0.0998,0.1169,0.1253,0.088,0.0882,0.0884,0,-0.0077,-0.013,-0.0253,-0.0314,-0.035,-0.0415,-0.0464,-0.0475,-0.0509,-0.0503,-0.0525,-0.0349,-0.0194,0.0248,0.0494,0.0835,0.0902,0.0958,0.0853,0.0985,0.1054,0.1064,0.1122,0.0935,0.0937,0.0938,0.0939,0,-0.0103,-0.0151,-0.0231,-0.0366,-0.0442,-0.0524,-0.0584,-0.0629,-0.0642,-0.0655,-0.0595,-0.0457,-0.0065,0.0312,0.0718,0.0883,0.1028,0.099,0.1114,0.1088,0.1122,0.1225,0.0847,0.0952,0.0951,0.095,0.0949,0.0949,-0.0107,-0.0175,-0.0289,-0.0412,-0.0505,-0.0605,-0.0649,-0.0704,-0.0745,-0.0697,-0.0568,-0.0228,0.0197,0.0768,0.0939,0.1198,0.1146,0.1239,0.1268,0.1271,0.1317,0.0984,0.1135,0.1134,0.1134,0.1134,0.1134,0,-0.0108,-0.02,-0.0322,-0.0466,-0.0553,-0.0601,-0.0706,-0.0715,-0.0744,-0.0601,-0.0425,0.03,0.0689,0.1061,0.1361,0.1481,0.1494,0.155,0.1567,0.1616,0.1324,0.1288,0.1494,0.1494,0.1494,0.1494,0.1494,0.1494,-0.0114,-0.023,-0.0311,-0.0464,-0.0546,-0.062,-0.0665,-0.0677,-0.0574,-0.0226,0.0258,0.0686,0.119,0.1512,0.1751,0.177,0.1907,0.1872,0.197,0.1759,0.1731,0.1705,0.1682,0.1967,0.1968,0.2252,0.2255,0.2257]}],[{"header":{"parameterUnit":"m.s-1","parameterCategory":2,"la1":30.2991,"la2":30.254,"lo1":-89.0895,"lo2":-89.0444,"dy":0.0017,"dx":0.0017,"nx":28,"ny":28,"refTime":"2025-03-11T03:00:00:Z","depth":"2","parameterNumber":2,"parameterNumberName":"U-component_of_CURRENTS"},"data":[0,0,0,0,0,0,0,0,0,0,0,0,0,0,0,0,0,0,0,0,0,0,0,0,0,0,0,0,0,0,0,0,0,0,0,0,0,0,0,0,0,0,0,0,0,0,0,0,0,0,0,0,0,0,0,0,0,0,-0.1929,-0.1931,0,-0.2089,-0.2091,-0.2093,-0.2209,-0.221,-0.2211,-0.2212,-0.2312,-0.2313,-0.2315,0,0,0,0,0,0,0,0,0,0,0,0,0,-0.1798,-0.1799,-0.1929,-0.1931,-0.1933,-0.2089,-0.2092,-0.2094,-0.2209,-0.221,-0.2211,-0.2212,-0.2311,-0.2313,-0.2315,0,0,0,0,0,0,0,0,0,0,0,0,0,-0.1897,-0.18,-0.1928,-0.2008,-0.2017,-0.2089,-0.2092,-0.2094,-0.2209,-0.221,-0.2211,-0.2213,-0.231,-0.2313,-0.2316,-0.2307,0,0,-0.2324,-0.2325,0,0,0,0,0,0,0,0,-0.1891,-0.1902,-0.1995,-0.2003,-0.2013,-0.213,-0.2082,-0.2162,-0.2209,-0.2137,-0.2212,-0.2213,-0.2243,-0.2252,-0.2282,-0.2312,-0.2316,-0.2325,-0.2326,-0.2327,-0.2328,0,0,0,0,0,0,0,-0.1884,-0.1896,-0.1994,-0.1996,-0.2008,-0.2062,-0.2077,-0.2099,-0.2181,-0.2144,-0.2152,-0.2168,-0.2248,-0.2279,-0.2285,-0.2318,-0.2324,-0.2327,-0.2329,-0.233,-0.2412,-0.2412,0,0,0,0,0,0,-0.1857,-0.1889,-0.1989,-0.1998,-0.1953,-0.2063,-0.208,-0.2092,-0.2182,-0.2198,-0.2166,-0.2172,-0.2273,-0.2281,-0.2288,-0.2311,-0.2327,-0.233,-0.2332,-0.2411,-0.2412,-0.2413,0,0,0,0,0,0,-0.1853,-0.1864,-0.1982,-0.1947,-0.1966,-0.2063,-0.2076,-0.2094,-0.2151,-0.22,-0.2215,-0.2207,-0.2275,-0.2284,-0.2349,-0.2314,-0.2331,-0.2334,-0.2411,-0.2412,-0.2412,-0.2338,0,0,0,0,0,0,-0.1849,-0.1861,-0.1855,-0.1945,-0.1966,-0.2051,-0.2075,-0.2096,-0.2156,-0.2166,-0.2238,-0.2248,-0.2276,-0.2345,-0.2352,-0.2319,-0.2336,-0.241,-0.2411,-0.2412,-0.234,-0.2336,-0.2333,0,0,0,0,0,-0.1843,-0.1862,-0.1854,-0.1866,-0.1956,-0.2053,-0.207,-0.2144,-0.2156,-0.2196,-0.2248,-0.2247,-0.2355,-0.2349,-0.2357,-0.2323,-0.241,-0.2411,-0.2412,-0.2341,-0.2337,-0.2333,0,0,0,0,0,0,-0.1828,-0.1877,-0.1871,-0.1906,-0.1972,-0.2073,-0.2114,-0.2149,-0.2221,-0.2227,-0.227,-0.2284,-0.2313,-0.2346,-0.2338,-0.2353,-0.2375,-0.2377,-0.2318,-0.2314,-0.2311,-0.2286,-0.2338,0,0,0,0,0,-0.1805,-0.1811,-0.1885,-0.1907,-0.1943,-0.2019,-0.2062,-0.211,-0.2184,-0.2219,-0.2279,-0.2317,-0.2319,-0.2344,-0.2372,-0.2395,-0.2404,-0.2377,-0.2373,-0.237,-0.2358,-0.2371,-0.2366,-0.2416,-0.2416,-0.2416,0,0,-0.1795,-0.1827,-0.1826,-0.1899,-0.1954,-0.1997,-0.2052,-0.2129,-0.2145,-0.2212,-0.2277,-0.2309,-0.2324,-0.2345,-0.2359,-0.2373,-0.2358,-0.2371,-0.2367,-0.2357,-0.2371,-0.2366,-0.2362,-0.2417,-0.2417,-0.2417,0,0,-0.1793,-0.1819,-0.1823,-0.1875,-0.1951,-0.2,-0.2021,-0.2134,-0.217,-0.2222,-0.2253,-0.2273,-0.2333,-0.2326,-0.2317,-0.2312,-0.2334,-0.2334,-0.23,-0.2312,-0.2308,-0.2303,-0.229,-0.2286,-0.2339,-0.2339,-0.2339,0,-0.1775,-0.1792,-0.1847,-0.1878,-0.1918,-0.1995,-0.2029,-0.2065,-0.2182,-0.221,-0.2235,-0.2295,-0.2295,-0.2275,-0.2267,-0.2292,-0.2325,-0.2305,-0.2304,-0.23,-0.2297,-0.2285,-0.2281,-0.2335,-0.2336,-0.2336,-0.2336,0,-0.1774,-0.1792,-0.1821,-0.1854,-0.1908,-0.1965,-0.202,-0.2076,-0.2118,-0.2156,-0.219,-0.2212,-0.225,-0.2234,-0.2236,-0.2218,-0.2254,-0.2288,-0.2304,-0.2287,-0.2276,-0.2273,-0.233,-0.2332,-0.2333,-0.2333,0,0,-0.1731,-0.1796,-0.1804,-0.1824,-0.1905,-0.1962,-0.198,-0.204,-0.2066,-0.2125,-0.2163,-0.2121,-0.217,-0.2165,-0.2182,-0.2177,-0.2144,-0.2231,-0.2233,-0.2197,-0.2182,-0.2078,-0.2065,-0.221,-0.2209,-0.2209,-0.2175,0,-0.1716,-0.175,-0.179,-0.1834,-0.1873,-0.1942,-0.1962,-0.2015,-0.2064,-0.213,-0.2116,-0.2152,-0.2129,-0.2158,-0.2141,-0.2169,-0.2139,-0.2149,-0.2222,-0.2222,-0.2116,-0.2058,-0.1902,-0.1849,-0.2172,-0.2172,-0.2171,0,-0.17,-0.1733,-0.1761,-0.1839,-0.1866,-0.1891,-0.1973,-0.2003,-0.2067,-0.2107,-0.2136,-0.2177,-0.2157,-0.2155,-0.2137,-0.217,-0.2152,-0.2153,-0.2154,-0.2079,-0.2112,-0.1925,-0.1832,-0.2166,-0.2167,-0.2167,-0.2168,0,-0.1656,-0.1721,-0.1741,-0.1767,-0.1854,-0.1879,-0.1927,-0.1998,-0.203,-0.2107,-0.2149,-0.2169,-0.221,-0.2178,-0.2145,-0.2174,-0.2138,-0.2179,-0.205,-0.2043,-0.1927,-0.1909,-0.2133,-0.2133,-0.2133,-0.2133,-0.2133,0,-0.1634,-0.1659,-0.1722,-0.1739,-0.1781,-0.1856,-0.1904,-0.1957,-0.203,-0.2065,-0.2134,-0.2161,-0.2233,-0.2228,-0.2164,-0.2076,-0.214,-0.2011,-0.2018,-0.1895,-0.1876,-0.2179,-0.2185,-0.2132,-0.2132,-0.2132,-0.2133,0,-0.1583,-0.1619,-0.1656,-0.1734,-0.1758,-0.179,-0.1875,-0.191,-0.1987,-0.2036,-0.206,-0.2189,-0.218,-0.2175,-0.2167,-0.211,-0.2021,-0.1966,-0.1798,-0.1783,-0.1918,-0.1921,-0.1836,-0.1832,-0.1828,-0.1825,-0.1823,0,-0.1553,-0.1562,-0.1632,-0.1648,-0.168,-0.1736,-0.1768,-0.1865,-0.1899,-0.2013,-0.2026,-0.2098,-0.2071,-0.2012,-0.1941,-0.1803,-0.1894,-0.1626,-0.1611,-0.1866,-0.1883,-0.1892,-0.1899,-0.1431,-0.1426,-0.1422,-0.1418,0,-0.1499,-0.152,-0.1548,-0.1576,-0.1608,-0.165,-0.1703,-0.1721,-0.1829,-0.1865,-0.1903,-0.1892,-0.1871,-0.1721,-0.1612,-0.1514,-0.1635,-0.1529,-0.1846,-0.1525,-0.148,-0.1499,-0.1521,-0.1378,-0.1382,-0.1385,-0.1387,-0.1389,-0.1444,-0.1447,-0.147,-0.1494,-0.1526,-0.1538,-0.1526,-0.1588,-0.1609,-0.1638,-0.1735,-0.1661,-0.1645,-0.1388,-0.1264,-0.1208,-0.1326,-0.1286,-0.1302,-0.1323,-0.1276,-0.1227,-0.1067,-0.1069,-0.1071,-0.1072,-0.1074,0,-0.1369,-0.1374,-0.1386,-0.1399,-0.1381,-0.1436,-0.1457,-0.1412,-0.1385,-0.1448,-0.1455,-0.1265,-0.1127,-0.1079,-0.0905,-0.0862,-0.0884,-0.0844,-0.0878,-0.0916,-0.0951,-0.0889,-0.0575,-0.0574,-0.0573,-0.0572,0,0,-0.1325,-0.1302,-0.1306,-0.124,-0.1243,-0.117,-0.1149,-0.1107,-0.1106,-0.1061,-0.1036,-0.1134,-0.1061,-0.0844,-0.0768,-0.0647,-0.0792,-0.0614,-0.1009,-0.109,-0.1124,-0.119,-0.1134,0,0,0,0,0]},{"header":{"parameterUnit":"m.s-1","parameterCategory":2,"la1":30.2991,"la2":30.254,"lo1":-89.0895,"lo2":-89.0444,"dy":0.0017,"dx":0.0017,"nx":28,"ny":28,"refTime":"2025-03-11T03:00:00:Z","depth":"2","parameterNumber":3,"parameterNumberName":"V-component_of_CURRENTS"},"data":[0,0,0,0,0,0,0,0,0,0,0,0,0,0,0,0,0,0,0,0,0,0,0,0,0,0,0,0,0,0,0,0,0,0,0,0,0,0,0,0,0,0,0,0,0,0,0,0,0,0,0,0,0,0,0,0,0,0,-0.0485,-0.0484,0,-0.0383,-0.0382,-0.0381,-0.0289,-0.0288,-0.0287,-0.0287,-0.0051,-0.0046,-0.0041,0,0,0,0,0,0,0,0,0,0,0,0,0,-0.0468,-0.0469,-0.0485,-0.0484,-0.0483,-0.0384,-0.0382,-0.038,-0.0289,-0.0288,-0.0287,-0.0286,-0.0053,-0.0047,-0.004,0,0,0,0,0,0,0,0,0,0,0,0,0,-0.043,-0.047,-0.0485,-0.0427,-0.0421,-0.0384,-0.0382,-0.038,-0.029,-0.0288,-0.0287,-0.0286,-0.0055,-0.0047,-0.0039,-0.0016,0,0,-0.0014,-0.0011,0,0,0,0,0,0,0,0,-0.0433,-0.0431,-0.0436,-0.0431,-0.0424,-0.0349,-0.029,-0.0252,-0.029,-0.0337,-0.0287,-0.0285,-0.0141,-0.0126,-0.0109,-0.0005,0.0005,-0.0014,-0.0009,-0.0005,-0.0003,0,0,0,0,0,0,0,-0.0435,-0.0434,-0.0443,-0.0436,-0.0428,-0.0361,-0.0355,-0.0282,-0.0244,-0.0333,-0.0327,-0.0319,-0.0136,-0.0117,-0.0102,0.0009,-0.0014,-0.0007,-0.0002,0.0002,0.0254,0.0256,0,0,0,0,0,0,-0.0461,-0.0438,-0.0446,-0.044,-0.0427,-0.0363,-0.0356,-0.0373,-0.0247,-0.0229,-0.032,-0.0315,-0.0131,-0.0112,-0.0093,-0.0021,-0.0005,0.0002,0.0007,0.0252,0.0254,0.0256,0,0,0,0,0,0,-0.0461,-0.0464,-0.045,-0.0436,-0.0429,-0.0366,-0.0385,-0.0372,-0.0347,-0.024,-0.0217,-0.0309,-0.0129,-0.0105,-0.0011,-0.0012,0.0006,0.0014,0.025,0.0253,0.0255,0.01,0,0,0,0,0,0,-0.0462,-0.0465,-0.0483,-0.0439,-0.0431,-0.0434,-0.0386,-0.0371,-0.0346,-0.0338,-0.0222,-0.02,-0.0126,-0.0024,-0.0003,-0.0001,0.002,0.0248,0.0251,0.0254,0.0103,0.0097,0.0092,0,0,0,0,0,-0.0462,-0.0494,-0.0485,-0.0485,-0.046,-0.0435,-0.0425,-0.0371,-0.0347,-0.0343,-0.0251,-0.0203,0.0014,-0.0017,0.0007,0.0012,0.0246,0.025,0.0254,0.0105,0.0098,0.0092,0,0,0,0,0,0,-0.0482,-0.0486,-0.0476,-0.0504,-0.0475,-0.042,-0.0412,-0.038,-0.0309,-0.0295,-0.019,-0.0161,-0.0081,-0.0,-0.0036,0.0104,0.0142,0.0151,0.0021,0.0015,0.001,-0.0008,0.0027,0,0,0,0,0,-0.0502,-0.0536,-0.0509,-0.0529,-0.0521,-0.047,-0.0452,-0.0421,-0.0356,-0.0325,-0.0237,-0.0132,-0.0047,0.0009,0.0096,0.0165,0.0224,0.0195,0.0189,0.0183,0.0192,0.0268,0.0268,0.027,0.027,0.027,0,0,-0.0519,-0.0521,-0.0541,-0.0537,-0.051,-0.0497,-0.0455,-0.0439,-0.0413,-0.0308,-0.0235,-0.0157,-0.0032,0.0045,0.009,0.0112,0.0212,0.0189,0.0182,0.0194,0.0272,0.0271,0.0271,0.0273,0.0272,0.0272,0,0,-0.0554,-0.0569,-0.0599,-0.0582,-0.0557,-0.0525,-0.0525,-0.0471,-0.0432,-0.0368,-0.0279,-0.0202,-0.0065,0.0017,0.0077,0.0102,0.0173,0.0141,0.0103,0.0175,0.0174,0.0174,0.0216,0.0222,0.0146,0.0146,0.0146,0,-0.0562,-0.0601,-0.0597,-0.0602,-0.0587,-0.0542,-0.0542,-0.0501,-0.0416,-0.0375,-0.0355,-0.0158,-0.008,0.0028,0.0033,0.0083,0.0133,0.0098,0.016,0.0162,0.0165,0.0209,0.0217,0.0139,0.014,0.014,0.0141,0,-0.0612,-0.0629,-0.064,-0.0639,-0.0623,-0.062,-0.0569,-0.0533,-0.0487,-0.0432,-0.033,-0.0225,-0.0104,-0.0073,-0.0018,0.0055,0.0084,0.0125,0.0154,0.0153,0.0202,0.0212,0.0129,0.0131,0.0133,0.0135,0,0,-0.0656,-0.0673,-0.0675,-0.0676,-0.0644,-0.0636,-0.0597,-0.0542,-0.0506,-0.0425,-0.0364,-0.0244,-0.0192,-0.0117,-0.0038,0.0021,0.0048,0.0071,0.0078,0.0073,0.0191,0.0193,0.0205,0.0094,0.0096,0.0098,0.0203,0,-0.0683,-0.0715,-0.0709,-0.0715,-0.0719,-0.0669,-0.0637,-0.0579,-0.0514,-0.0443,-0.0339,-0.0254,-0.0204,-0.016,-0.0095,0.0025,0.0076,0.0015,0.0231,0.0237,0.0205,0.0218,0.0202,0.0295,0.0214,0.0216,0.0217,0,-0.0726,-0.074,-0.0763,-0.0752,-0.0749,-0.0742,-0.0684,-0.0647,-0.054,-0.0488,-0.039,-0.0303,-0.0195,-0.0166,0.0021,-0.0019,0.0071,0.0152,0.0159,0.0228,0.026,0.0297,0.0318,0.0236,0.0234,0.0233,0.0232,0,-0.0761,-0.0773,-0.0797,-0.0794,-0.0773,-0.0766,-0.0745,-0.0659,-0.0622,-0.0514,-0.0474,-0.0327,-0.0245,-0.0116,0.0044,0.0036,0.0241,0.0255,0.0344,0.0344,0.0411,0.0414,0.0379,0.0378,0.0378,0.0378,0.0378,0,-0.0794,-0.0809,-0.0821,-0.0832,-0.085,-0.0814,-0.0802,-0.0753,-0.0674,-0.0621,-0.0505,-0.0417,-0.0226,-0.0081,0.0041,0.0226,0.0245,0.0342,0.0381,0.0356,0.0353,0.0378,0.0377,0.0382,0.0381,0.038,0.038,0,-0.0829,-0.0836,-0.0864,-0.0866,-0.0871,-0.0884,-0.0864,-0.0845,-0.0766,-0.0692,-0.0663,-0.0468,-0.0283,-0.0104,0.0128,0.0233,0.0396,0.0457,0.0396,0.0425,0.0444,0.0434,0.0555,0.0556,0.0557,0.0558,0.0559,0,-0.0855,-0.0874,-0.0905,-0.0931,-0.094,-0.0953,-0.0959,-0.0899,-0.0869,-0.0708,-0.0671,-0.0473,-0.0313,0.0009,0.022,0.0427,0.0437,0.0535,0.0515,0.0441,0.0467,0.0455,0.0444,0.0535,0.0536,0.0536,0.0537,0,-0.0895,-0.0907,-0.0934,-0.0992,-0.102,-0.1042,-0.1039,-0.1027,-0.093,-0.0847,-0.0676,-0.0535,-0.0217,0.0044,0.0305,0.0427,0.0492,0.0548,0.0528,0.048,0.0429,0.0451,0.044,0.054,0.0539,0.0539,0.0539,0.0539,-0.0926,-0.096,-0.1001,-0.1053,-0.1089,-0.1114,-0.1122,-0.1084,-0.1023,-0.0867,-0.0705,-0.0467,-0.0209,0.0168,0.0361,0.0539,0.0535,0.0591,0.0588,0.0586,0.0552,0.0504,0.0621,0.0621,0.0621,0.0621,0.0621,0,-0.0965,-0.1002,-0.1058,-0.1118,-0.1165,-0.1167,-0.1162,-0.1127,-0.1049,-0.0863,-0.0687,-0.038,-0.0096,0.0156,0.0444,0.0608,0.0597,0.0629,0.0593,0.0589,0.0586,0.055,0.0621,0.0621,0.0621,0.0621,0,0,-0.0988,-0.1049,-0.1079,-0.1168,-0.1207,-0.1236,-0.1229,-0.1148,-0.1012,-0.0802,-0.0612,-0.0392,-0.0068,0.0124,0.0338,0.0497,0.0495,0.0504,0.0491,0.0421,0.0415,0.0555,0.0495,0,0,0,0,0]}],[{"header":{"parameterUnit":"m.s-1","parameterCategory":2,"la1":30.2991,"la2":30.254,"lo1":-89.0895,"lo2":-89.0444,"dy":0.0017,"dx":0.0017,"nx":28,"ny":28,"refTime":"2025-03-11T03:00:00:Z","depth":"4","parameterNumber":2,"parameterNumberName":"U-component_of_CURRENTS"},"data":[0,0,0,0,0,0,0,0,0,0,0,0,0,0,0,0,0,0,0,0,0,0,0,0,0,0,0,0,0,0,0,0,0,0,0,0,0,0,0,0,0,0,0,0,0,0,0,0,0,0,0,0,0,0,0,0,0,0,-0.1225,-0.1226,0,-0.1279,-0.1279,-0.128,-0.1291,-0.1291,-0.129,-0.129,-0.1338,-0.1339,-0.1341,0,0,0,0,0,0,0,0,0,0,0,0,0,-0.1186,-0.1186,-0.1225,-0.1226,-0.1226,-0.1279,-0.1279,-0.128,-0.1291,-0.1291,-0.129,-0.129,-0.1337,-0.1339,-0.1341,0,0,0,0,0,0,0,0,0,0,0,0,0,-0.1217,-0.1186,-0.1225,-0.1239,-0.1241,-0.1278,-0.1279,-0.128,-0.1291,-0.129,-0.129,-0.129,-0.1337,-0.1339,-0.1341,-0.1366,0,0,-0.1348,-0.1349,0,0,0,0,0,0,0,0,-0.1215,-0.1218,-0.1236,-0.1238,-0.124,-0.1278,-0.1283,-0.1309,-0.1291,-0.1271,-0.129,-0.1289,-0.1318,-0.1322,-0.1332,-0.1368,-0.137,-0.1349,-0.135,-0.1351,-0.1352,0,0,0,0,0,0,0,-0.1213,-0.1216,-0.1245,-0.1237,-0.1239,-0.1261,-0.1264,-0.1288,-0.1296,-0.1273,-0.1274,-0.1281,-0.1319,-0.133,-0.1333,-0.1371,-0.1349,-0.1351,-0.1352,-0.1353,-0.1434,-0.1434,0,0,0,0,0,0,-0.1205,-0.1214,-0.1244,-0.1247,-0.1227,-0.1262,-0.1266,-0.1266,-0.1296,-0.13,-0.1282,-0.1282,-0.1326,-0.1331,-0.1335,-0.1395,-0.1351,-0.1353,-0.1355,-0.1433,-0.1434,-0.1435,0,0,0,0,0,0,-0.1204,-0.1207,-0.1241,-0.1233,-0.1239,-0.1263,-0.1263,-0.1267,-0.1295,-0.1303,-0.1307,-0.1307,-0.1326,-0.1332,-0.1368,-0.1395,-0.1354,-0.1357,-0.1432,-0.1433,-0.1434,-0.1496,0,0,0,0,0,0,-0.1203,-0.1206,-0.1217,-0.1232,-0.1239,-0.1272,-0.1264,-0.1269,-0.1299,-0.13,-0.1326,-0.1329,-0.1326,-0.1364,-0.137,-0.1398,-0.1358,-0.1431,-0.1433,-0.1434,-0.1493,-0.1499,-0.1504,0,0,0,0,0,-0.1201,-0.1214,-0.1217,-0.1221,-0.1248,-0.1273,-0.1279,-0.1294,-0.1301,-0.1317,-0.1333,-0.1329,-0.1376,-0.1367,-0.1374,-0.1403,-0.1431,-0.1432,-0.1434,-0.149,-0.1498,-0.1504,0,0,0,0,0,0,-0.1205,-0.1217,-0.122,-0.1236,-0.1257,-0.1275,-0.1297,-0.1309,-0.1336,-0.1344,-0.1348,-0.1352,-0.1389,-0.1388,-0.1378,-0.1427,-0.1399,-0.1402,-0.144,-0.1447,-0.1452,-0.1466,-0.136,0,0,0,0,0,-0.121,-0.1222,-0.1236,-0.1254,-0.1264,-0.1286,-0.1304,-0.1316,-0.1338,-0.135,-0.1366,-0.1382,-0.14,-0.1417,-0.1427,-0.1467,-0.1459,-0.1485,-0.1491,-0.1496,-0.151,-0.1529,-0.1538,-0.144,-0.144,-0.144,0,0,-0.1219,-0.1227,-0.1236,-0.1256,-0.1274,-0.13,-0.1296,-0.133,-0.1361,-0.1352,-0.1401,-0.1405,-0.1412,-0.1447,-0.1464,-0.1454,-0.1513,-0.1498,-0.1502,-0.1514,-0.1532,-0.1542,-0.155,-0.1441,-0.1441,-0.1441,0,0,-0.1233,-0.1248,-0.1259,-0.128,-0.131,-0.1327,-0.1341,-0.137,-0.1393,-0.1435,-0.1433,-0.1459,-0.1488,-0.1501,-0.151,-0.1556,-0.1539,-0.1554,-0.1604,-0.1623,-0.1632,-0.1639,-0.1618,-0.1623,-0.1562,-0.1562,-0.1562,0,-0.1243,-0.1258,-0.127,-0.1289,-0.1317,-0.1341,-0.137,-0.14,-0.1439,-0.1465,-0.1456,-0.1507,-0.1516,-0.1562,-0.1576,-0.1573,-0.1565,-0.1581,-0.1632,-0.164,-0.1646,-0.1623,-0.1628,-0.1565,-0.1564,-0.1564,-0.1564,0,-0.1258,-0.1284,-0.1298,-0.1328,-0.1359,-0.1394,-0.1431,-0.1469,-0.1499,-0.1522,-0.1574,-0.1585,-0.1611,-0.1618,-0.1618,-0.1671,-0.1642,-0.1634,-0.1619,-0.166,-0.1632,-0.1636,-0.1569,-0.1568,-0.1567,-0.1566,0,0,-0.1244,-0.1297,-0.1305,-0.1332,-0.1388,-0.1415,-0.1476,-0.1532,-0.1575,-0.161,-0.166,-0.1696,-0.1698,-0.1708,-0.1708,-0.1735,-0.177,-0.1714,-0.1713,-0.1698,-0.1787,-0.164,-0.163,-0.1775,-0.1777,-0.1778,-0.1739,0,-0.1254,-0.1296,-0.1327,-0.1389,-0.1417,-0.1471,-0.1525,-0.1582,-0.1627,-0.1679,-0.1707,-0.1745,-0.1733,-0.1748,-0.1776,-0.1769,-0.1788,-0.178,-0.1744,-0.1742,-0.1612,-0.1633,-0.1784,-0.1742,-0.1743,-0.1744,-0.1744,0,-0.1252,-0.1285,-0.1339,-0.1422,-0.1442,-0.1487,-0.1582,-0.1633,-0.1711,-0.1743,-0.1787,-0.1801,-0.1843,-0.1827,-0.1844,-0.1838,-0.1826,-0.1818,-0.1816,-0.1665,-0.1604,-0.1696,-0.1751,-0.1751,-0.175,-0.175,-0.1749,0,-0.1222,-0.1298,-0.1345,-0.1373,-0.1463,-0.151,-0.1567,-0.1651,-0.1693,-0.1781,-0.1804,-0.1857,-0.1865,-0.188,-0.1852,-0.1858,-0.1854,-0.1852,-0.1707,-0.1695,-0.1813,-0.1806,-0.1879,-0.1879,-0.1879,-0.1879,-0.1879,0,-0.1209,-0.1253,-0.1338,-0.1362,-0.143,-0.1503,-0.1577,-0.1641,-0.1719,-0.1755,-0.1826,-0.1835,-0.1883,-0.1877,-0.1867,-0.1774,-0.1856,-0.1715,-0.1682,-0.1834,-0.183,-0.1814,-0.1807,-0.1878,-0.1878,-0.1878,-0.1879,0,-0.116,-0.1217,-0.1276,-0.1378,-0.1412,-0.1459,-0.1562,-0.1604,-0.1689,-0.1734,-0.1758,-0.1816,-0.1795,-0.1809,-0.1813,-0.1753,-0.1711,-0.1665,-0.18,-0.1775,-0.1538,-0.1535,-0.15,-0.1495,-0.149,-0.1486,-0.1483,0,-0.1133,-0.1157,-0.1264,-0.1294,-0.1342,-0.142,-0.1464,-0.1571,-0.1604,-0.1694,-0.1694,-0.1715,-0.1734,-0.1599,-0.1643,-0.1593,-0.1582,-0.1549,-0.1577,-0.1531,-0.1503,-0.1507,-0.151,-0.1476,-0.1475,-0.1474,-0.1472,0,-0.1078,-0.1125,-0.1169,-0.1226,-0.128,-0.1335,-0.1404,-0.1411,-0.1519,-0.1608,-0.1576,-0.1557,-0.1522,-0.1499,-0.1459,-0.1436,-0.1568,-0.1502,-0.1512,-0.1538,-0.1501,-0.1479,-0.1487,-0.1457,-0.1459,-0.146,-0.1461,0,-0.1032,-0.1046,-0.1101,-0.1142,-0.1203,-0.122,-0.1277,-0.1299,-0.1338,-0.144,-0.1419,-0.1445,-0.1498,-0.1415,-0.1385,-0.1337,-0.1327,-0.1297,-0.1318,-0.1336,-0.13,-0.123,-0.1072,0,0,0,0,0,-0.0977,-0.0979,-0.101,-0.1045,-0.11,-0.113,-0.1218,-0.1275,-0.1372,-0.1307,-0.1359,-0.1322,-0.1267,-0.128,-0.1193,-0.1314,-0.1336,-0.1209,-0.1315,-0.137,-0.1388,-0.1361,0,0,0,0,0,0,-0.0937,-0.0966,-0.0973,-0.0946,-0.0947,-0.0993,-0.104,-0.1113,-0.1085,-0.1185,-0.1153,-0.123,-0.1188,-0.1279,-0.1158,-0.1162,-0.12,-0.1233,-0.1229,-0.1359,-0.1376,-0.139,-0.1369,0,0,0,0,0]},{"header":{"parameterUnit":"m.s-1","parameterCategory":2,"la1":30.2991,"la2":30.254,"lo1":-89.0895,"lo2":-89.0444,"dy":0.0017,"dx":0.0017,"nx":28,"ny":28,"refTime":"2025-03-11T03:00:00:Z","depth":"4","parameterNumber":3,"parameterNumberName":"V-component_of_CURRENTS"},"data":[0,0,0,0,0,0,0,0,0,0,0,0,0,0,0,0,0,0,0,0,0,0,0,0,0,0,0,0,0,0,0,0,0,0,0,0,0,0,0,0,0,0,0,0,0,0,0,0,0,0,0,0,0,0,0,0,0,0,-0.0357,-0.0357,0,-0.0317,-0.0317,-0.0316,-0.028,-0.028,-0.028,-0.0279,-0.0208,-0.0207,-0.0205,0,0,0,0,0,0,0,0,0,0,0,0,0,-0.0353,-0.0354,-0.0357,-0.0357,-0.0356,-0.0317,-0.0317,-0.0316,-0.028,-0.028,-0.028,-0.0279,-0.0209,-0.0207,-0.0205,0,0,0,0,0,0,0,0,0,0,0,0,0,-0.0338,-0.0354,-0.0357,-0.0335,-0.0332,-0.0317,-0.0317,-0.0316,-0.0281,-0.028,-0.028,-0.0279,-0.0209,-0.0207,-0.0205,-0.02,0,0,-0.0197,-0.0196,0,0,0,0,0,0,0,0,-0.0339,-0.0338,-0.0338,-0.0336,-0.0333,-0.0304,-0.0289,-0.0276,-0.0281,-0.0299,-0.0279,-0.0279,-0.0238,-0.0233,-0.0226,-0.0197,-0.0194,-0.0197,-0.0196,-0.0195,-0.0194,0,0,0,0,0,0,0,-0.034,-0.0339,-0.0341,-0.0338,-0.0335,-0.0309,-0.0307,-0.0286,-0.0271,-0.0298,-0.0295,-0.0292,-0.0236,-0.0229,-0.0224,-0.0193,-0.0197,-0.0195,-0.0194,-0.0193,-0.0142,-0.0143,0,0,0,0,0,0,-0.035,-0.0341,-0.0342,-0.0339,-0.0336,-0.031,-0.0307,-0.0313,-0.0272,-0.0265,-0.0293,-0.0291,-0.0233,-0.0227,-0.0222,-0.0194,-0.0195,-0.0193,-0.0191,-0.0142,-0.0142,-0.0143,0,0,0,0,0,0,-0.035,-0.0351,-0.0343,-0.0339,-0.0336,-0.0311,-0.0318,-0.0313,-0.0308,-0.0268,-0.0261,-0.0293,-0.0232,-0.0225,-0.0202,-0.0192,-0.0192,-0.0189,-0.0142,-0.0142,-0.0143,-0.0151,0,0,0,0,0,0,-0.035,-0.0351,-0.0363,-0.034,-0.0337,-0.0342,-0.0318,-0.0312,-0.0307,-0.0304,-0.0267,-0.0259,-0.0231,-0.0206,-0.02,-0.0188,-0.0188,-0.0142,-0.0142,-0.0142,-0.0151,-0.0152,-0.0153,0,0,0,0,0,-0.035,-0.0369,-0.0364,-0.0364,-0.0353,-0.0343,-0.0339,-0.0318,-0.0308,-0.0311,-0.028,-0.0261,-0.0203,-0.0204,-0.0197,-0.0185,-0.0142,-0.0142,-0.0142,-0.0151,-0.0152,-0.0153,0,0,0,0,0,0,-0.037,-0.0366,-0.0361,-0.0377,-0.0364,-0.0337,-0.034,-0.0325,-0.0305,-0.0302,-0.0262,-0.0252,-0.0228,-0.0212,-0.0214,-0.0172,-0.0169,-0.0168,-0.0178,-0.0179,-0.018,-0.0171,-0.0186,0,0,0,0,0,-0.0383,-0.0399,-0.0382,-0.0396,-0.0392,-0.0368,-0.0363,-0.0349,-0.0326,-0.0317,-0.0289,-0.0258,-0.0224,-0.0207,-0.0183,-0.0161,-0.0131,-0.0149,-0.015,-0.0151,-0.014,-0.0065,-0.0057,-0.0143,-0.0143,-0.0143,0,0,-0.0397,-0.0395,-0.0405,-0.0402,-0.039,-0.0386,-0.0364,-0.0362,-0.035,-0.0313,-0.0293,-0.0264,-0.0221,-0.0192,-0.018,-0.0175,-0.012,-0.0151,-0.0152,-0.014,-0.0064,-0.0056,-0.0048,-0.0143,-0.0143,-0.0143,0,0,-0.0424,-0.0429,-0.0446,-0.0439,-0.0428,-0.041,-0.0413,-0.039,-0.0373,-0.0355,-0.0316,-0.0271,-0.0246,-0.0191,-0.0164,-0.0155,-0.0129,-0.0164,-0.0152,-0.008,-0.0072,-0.0064,-0.0052,-0.0043,-0.016,-0.016,-0.016,0,-0.0436,-0.0456,-0.0448,-0.0454,-0.045,-0.0423,-0.0428,-0.0406,-0.0377,-0.0353,-0.0355,-0.0267,-0.0233,-0.0159,-0.0156,-0.0151,-0.0135,-0.015,-0.0079,-0.007,-0.0062,-0.0051,-0.0041,-0.016,-0.016,-0.016,-0.016,0,-0.0469,-0.0482,-0.049,-0.0489,-0.0483,-0.0487,-0.0454,-0.0439,-0.0418,-0.0383,-0.0323,-0.0266,-0.0209,-0.0191,-0.0171,-0.0095,-0.0113,-0.0091,-0.0073,-0.0053,-0.0044,-0.0033,-0.0161,-0.0161,-0.016,-0.016,0,0,-0.05,-0.0512,-0.0515,-0.052,-0.0503,-0.0502,-0.0478,-0.044,-0.0415,-0.0369,-0.0322,-0.0242,-0.0206,-0.0172,-0.0129,-0.0061,0.0001,-0.0059,-0.0055,-0.0042,0.0112,0.0075,0.0083,0.0034,0.0037,0.0039,0.0081,0,-0.0524,-0.055,-0.0544,-0.0559,-0.0566,-0.0534,-0.0514,-0.0473,-0.043,-0.038,-0.0286,-0.0235,-0.02,-0.0175,-0.0096,-0.0025,0.0035,-0.0015,0.0087,0.0089,0.0061,0.0098,0.0048,0.0089,0.0092,0.0094,0.0095,0,-0.0551,-0.0566,-0.0592,-0.0593,-0.0593,-0.0597,-0.0557,-0.0535,-0.0445,-0.0409,-0.0322,-0.026,-0.0153,-0.013,0.0024,-0.0018,0.0045,0.0105,0.0108,0.0092,0.0075,0.0076,0.0115,0.0114,0.0112,0.0111,0.011,0,-0.0574,-0.0595,-0.062,-0.0623,-0.0618,-0.062,-0.0611,-0.0544,-0.0518,-0.0424,-0.0394,-0.026,-0.0199,-0.0082,0.0021,0.0026,0.0172,0.0198,0.0228,0.0223,0.0246,0.0238,0.0323,0.0322,0.0322,0.0322,0.0322,0,-0.0594,-0.0615,-0.0642,-0.0655,-0.0682,-0.0661,-0.0662,-0.0625,-0.0562,-0.0519,-0.0416,-0.0344,-0.0179,-0.0081,0.0015,0.0134,0.0168,0.0239,0.025,0.0232,0.0223,0.0252,0.0243,0.0324,0.0323,0.0323,0.0323,0,-0.0611,-0.0627,-0.0663,-0.0685,-0.0697,-0.0717,-0.072,-0.0707,-0.0647,-0.0586,-0.0559,-0.0404,-0.0266,-0.0136,0.0049,0.0118,0.0238,0.0271,0.0193,0.0197,0.0239,0.0229,0.0328,0.0328,0.0327,0.0327,0.0326,0,-0.0621,-0.0642,-0.0698,-0.0731,-0.075,-0.0779,-0.0793,-0.0755,-0.0732,-0.061,-0.0577,-0.0432,-0.0322,-0.0108,0.0035,0.0194,0.0229,0.0263,0.0314,0.0248,0.0249,0.024,0.0231,0.0326,0.0326,0.0325,0.0325,0,-0.064,-0.0667,-0.07,-0.0772,-0.0814,-0.0846,-0.086,-0.0845,-0.0774,-0.0726,-0.0568,-0.0423,-0.0271,-0.0089,0.0009,0.0138,0.0231,0.026,0.0263,0.0311,0.0246,0.0246,0.0237,0.0324,0.0324,0.0324,0.0324,0,-0.0658,-0.0693,-0.0747,-0.0803,-0.0863,-0.0892,-0.0893,-0.0848,-0.0811,-0.0669,-0.0612,-0.0424,-0.0301,-0.0118,-0.0015,0.0086,0.0145,0.0187,0.0195,0.0198,0.0152,0.005,0.009,0,0,0,0,0,-0.0671,-0.0712,-0.0773,-0.0835,-0.0895,-0.0924,-0.0925,-0.0907,-0.0836,-0.0732,-0.0667,-0.0515,-0.0289,-0.0176,-0.0076,-0.0032,0.0133,0.0086,0.0177,0.0315,0.0317,0.0283,0,0,0,0,0,0,-0.0683,-0.0744,-0.0773,-0.085,-0.0895,-0.095,-0.095,-0.0902,-0.083,-0.0735,-0.0614,-0.0509,-0.0302,-0.0358,-0.0081,-0.0045,0.0025,0.0199,0.0201,0.0314,0.0316,0.0317,0.0283,0,0,0,0,0]}]]